Theta_e
338 338 337 335 333 330 330 326 326 325 326 323 323 324 328 329 329 327 328 333 335 339 339 338 336 334 332 330 328 328 328 327 326 325 324 324 323 323 324 325 326 326 327
338 339 337 335 334 331 332 328 328 326 323 320 319 322 325 328 325 323 324 326 329 333 334 333 332 330 328 326 324 323 323 323 323 322 321 322 322 322 322 323 324 324 325
338 337 337 334 335 335 332 331 327 323 319 318 316 318 322 324 321 320 319 320 322 324 326 326 324 323 324 323 322 321 320 319 319 318 318 318 317 318 319 319 320 320 321
339 336 336 335 336 334 332 325 320 317 314 314 312 314 321 323 320 318 316 316 315 316 319 322 322 321 321 321 321 320 319 318 316 315 315 314 314 314 314 314 315 316 317
339 335 334 335 333 329 325 324 320 315 313 313 313 315 317 321 320 319 316 314 313 312 313 316 318 319 319 319 319 319 318 316 316 315 313 313 312 312 312 312 313 313 313
337 333 331 331 328 325 324 322 319 315 312 313 315 315 315 317 319 318 317 314 311 310 308 308 308 311 317 318 318 318 317 315 314 312 312 311 311 311 311 311 311 311 311
334 330 329 325 325 324 322 320 317 311 311 311 311 311 313 315 316 316 317 311 309 307 306 305 305 303 305 312 314 314 313 313 312 311 310 309 309 309 309 309 310 309 309
325 327 325 324 324 323 320 317 315 312 313 314 311 309 306 309 311 313 313 311 309 308 305 305 304 302 301 302 306 310 311 310 310 309 308 307 308 308 308 308 307 308 308
313 315 317 315 315 319 315 314 314 313 312 313 315 310 304 302 305 309 308 309 308 307 306 304 301 300 300 298 300 302 304 306 308 307 307 307 307 307 307 307 308 307 307
309 309 310 310 310 310 308 309 308 309 312 310 311 312 309 308 302 301 306 306 306 304 304 304 301 299 298 298 301 301 301 302 304 304 305 306 305 305 307 307 306 306 306
308 307 307 307 306 307 307 308 308 306 308 307 307 307 307 307 307 303 299 301 304 305 304 302 300 297 297 296 297 299 299 299 300 301 302 303 304 305 305 304 304 304 304
306 306 306 306 306 307 307 307 307 307 307 306 307 306 305 303 302 302 300 301 300 302 303 303 302 298 296 295 298 299 298 297 298 298 299 300 301 303 303 303 303 302 303
303 303 305 305 305 305 304 305 303 303 302 302 302 301 303 303 304 303 302 300 299 301 302 303 303 298 297 296 296 297 296 295 295 296 296 297 297 299 300 299 299 300 299
303 304 304 303 303 302 303 302 301 301 301 300 300 300 301 301 303 303 302 300 297 299 299 299 302 297 295 294 295 296 293 294 294 293 294 294 295 296 296 295 295 296 296
303 304 303 301 302 301 301 300 299 297 298 297 299 299 299 299 300 301 301 301 299 294 293 296 297 297 294 294 294 292 291 293 292 292 292 292 293 294 294 293 293 293 293
301 301 300 301 302 299 298 297 295 295 295 293 295 296 296 296 297 298 299 299 300 298 295 298 297 295 294 294 293 291 291 292 291 291 290 290 290 292 292 291 290 290 290
302 302 301 300 299 297 296 295 294 294 293 292 293 294 294 295 295 295 293 293 295 296 292 294 296 294 293 292 291 291 291 289 289 290 290 289 289 290 289 289 288 288 288
300 299 298 297 296 296 294 293 293 293 292 291 290 290 289 291 287 287 287 288 289 290 289 290 292 292 292 292 290 290 289 290 289 290 289 289 290 289 288 287 286 286 287
301 299 298 297 297 296 294 293 293 292 291 290 289 288 287 287 285 285 286 285 286 291 291 291 289 291 291 291 290 291 289 287 289 290 289 288 289 288 287 286 285 285 285
301 300 300 299 296 295 294 294 293 291 290 290 289 288 288 288 286 287 288 286 287 287 289 288 289 288 290 290 290 287 284 286 286 287 287 287 288 287 286 285 284 284 284
300 299 298 295 294 292 293 291 292 290 289 288 285 284 283 286 288 286 284 283 284 284 284 287 288 286 286 286 286 286 285 285 284 285 284 284 286 285 284 284 284 283 282
298 297 295 293 291 293 292 292 291 288 289 285 282 281 281 283 284 286 286 286 284 282 281 282 285 285 282 283 284 285 285 282 280 285 282 283 286 283 281 282 283 283 282
297 295 293 293 291 292 292 292 291 288 286 284 282 281 281 281 280 280 284 284 284 285 283 281 282 281 281 282 283 283 284 283 282 284 284 281 282 280 282 283 283 283 282
295 293 293 292 292 289 292 292 290 287 286 284 282 280 279 278 277 278 277 274 272 275 275 278 277 274 279 281 283 284 284 284 283 283 283 278 280 277 277 278 283 282 281
294 289 289 290 288 287 291 290 288 286 285 285 285 280 277 275 283 283 273 271 269 270 282 283 283 284 284 285 284 284 282 281 278 278 280 278 279 276 275 272 276 281 280
291 292 288 288 288 287 290 289 287 286 284 283 282 278 282 276 284 282 272 271 269 271 267 269 270 276 279 283 285 283 283 280 277 275 278 278 274 273 270 278 271 271 274
Wind_Speed
7 8 7 7 6 6 5 5 5 4 4 4 4 5 7 8 8 4 4 10 14 17 21 21 21 19 19 18 17 17 17 16 15 15 15 14 14 14 14 14 15 14 14
7 8 8 7 7 7 7 7 6 5 5 5 4 4 6 7 8 6 6 9 14 15 18 19 19 17 17 16 15 14 15 14 15 15 14 14 14 14 14 14 14 13 13
6 8 8 7 8 8 8 6 5 4 5 4 6 3 7 8 8 9 8 7 10 15 16 18 16 14 16 15 16 15 14 13 13 13 13 13 11 12 13 12 12 11 13
6 6 8 8 8 6 5 5 5 4 5 5 4 4 7 8 9 8 8 7 7 7 12 15 12 13 14 14 15 15 15 15 14 12 12 11 11 11 10 8 8 9 10
6 5 4 6 7 6 5 5 3 3 4 3 5 5 6 8 9 8 10 11 9 8 7 15 15 9 11 13 13 13 13 13 13 12 12 12 12 12 11 11 11 10 9
7 6 5 5 8 7 6 4 4 1 3 5 5 7 7 6 7 9 10 10 9 9 8 8 7 8 10 11 14 13 12 11 10 10 10 11 11 12 11 11 11 11 10
6 7 4 6 4 7 6 8 4 6 2 4 5 4 5 5 6 7 7 10 11 9 9 7 5 4 6 16 12 10 9 10 11 10 9 9 9 10 10 10 11 10 9
4 4 5 5 3 5 5 5 7 4 5 7 6 4 5 3 5 3 7 7 10 9 9 8 8 8 7 6 12 16 12 9 10 10 9 9 8 8 9 9 9 9 9
7 7 6 8 5 4 4 3 2 5 4 3 11 3 4 5 5 3 4 5 9 7 9 10 10 9 9 7 8 10 13 11 10 9 9 8 7 7 8 8 10 10 10
7 9 9 8 10 7 8 8 9 7 5 6 3 5 6 5 5 5 2 3 4 8 7 9 10 9 9 7 12 13 13 13 11 9 9 8 7 6 8 11 12 11 10
8 9 10 11 11 9 10 11 11 11 8 3 4 1 9 7 5 3 4 4 2 1 5 9 8 7 9 8 7 10 13 12 11 9 8 9 8 7 10 11 11 11 10
6 8 11 11 10 9 9 9 9 10 8 8 3 1 3 3 2 3 3 6 6 1 3 4 8 8 7 7 11 15 13 12 11 9 9 9 9 9 11 13 13 11 12
5 7 7 6 7 6 8 9 4 11 8 7 6 6 5 5 3 1 3 2 3 2 2 2 5 7 8 8 9 15 15 12 11 10 9 9 9 9 11 12 11 12 12
6 6 7 7 4 9 5 7 9 5 4 6 8 5 5 4 3 2 3 3 3 2 1 2 4 7 7 9 13 18 11 15 12 11 9 9 8 8 11 11 11 12 11
8 8 8 8 9 3 10 5 5 8 4 4 5 6 4 3 4 4 3 3 4 3 3 4 2 8 8 9 13 10 10 16 15 12 9 8 9 8 11 11 11 11 12
10 9 10 9 8 7 6 7 6 7 5 3 3 5 3 2 3 3 3 3 2 3 4 2 1 5 9 9 14 10 11 15 16 14 10 8 7 7 12 11 10 10 10
12 11 10 9 10 9 7 7 7 7 7 6 5 5 5 4 3 2 2 1 4 3 3 0 1 8 10 11 11 9 10 8 8 14 11 8 6 9 12 10 9 9 10
9 10 10 9 8 7 7 8 8 7 8 7 7 6 6 4 4 3 2 1 2 2 4 4 3 4 9 11 11 10 9 9 7 11 11 9 9 11 11 9 9 8 9
10 9 10 10 11 10 9 7 8 8 7 7 7 7 6 7 4 3 3 3 2 2 2 4 2 2 6 9 10 9 7 9 7 13 11 9 12 12 11 11 9 8 7
9 8 9 9 9 9 9 8 10 8 7 7 7 6 6 6 6 6 5 4 3 3 2 3 3 3 4 6 6 7 7 4 7 7 8 7 11 12 12 11 10 8 8
8 9 8 7 6 7 6 7 9 8 7 7 8 8 6 9 12 8 3 4 4 4 3 3 4 3 2 3 5 4 5 6 4 2 4 4 5 4 5 9 9 10 8
9 8 7 9 8 5 10 10 9 8 8 9 7 7 5 9 11 13 14 13 6 4 3 4 4 4 4 5 3 4 5 5 3 3 3 2 4 5 5 3 9 10 8
13 13 10 11 9 7 14 17 16 8 9 8 8 7 6 4 7 6 11 13 13 12 7 3 6 5 5 5 6 5 3 5 3 4 5 3 4 5 3 5 9 8 5
12 11 12 12 11 7 17 18 15 7 7 8 9 9 8 6 5 6 8 7 6 5 5 3 4 3 6 5 5 5 3 4 4 4 3 3 3 3 1 0 8 5 4
12 10 8 11 12 9 19 21 15 9 8 8 8 8 9 7 12 14 8 8 5 4 5 10 11 12 12 12 8 7 4 5 2 1 1 3 3 3 2 1 2 5 4
12 10 9 10 13 12 20 23 17 9 9 7 5 5 16 10 13 14 7 7 6 3 3 3 3 5 6 7 10 4 5 7 3 1 3 4 2 4 1 3 2 0 1
Wind_Direction
179 168 177 174 172 167 172 185 197 194 212 164 93 84 101 110 101 82 74 86 103 111 110 104 99 96 92 90 90 89 86 81 79 78 77 73 71 64 57 55 54 55 54
178 179 175 178 169 181 186 182 188 179 175 135 110 94 113 99 94 90 88 73 80 98 104 103 98 98 98 97 96 94 89 88 85 79 75 70 69 68 65 61 62 60 59
183 174 174 175 183 186 183 176 163 152 134 131 126 114 107 105 107 103 91 81 74 75 96 97 99 108 107 106 104 100 99 98 90 89 83 78 71 62 60 58 57 51 55
179 179 178 183 180 171 163 142 146 125 133 136 136 124 118 113 113 106 103 94 84 76 67 84 100 106 109 109 109 105 104 103 97 91 89 79 78 76 73 60 43 39 40
190 181 178 176 149 141 139 140 116 152 144 137 150 114 113 130 134 126 115 104 100 90 84 79 72 68 103 108 103 99 100 95 95 94 87 83 78 73 68 69 62 55 42
183 166 179 167 146 143 134 127 135 155 152 157 165 146 133 140 132 139 132 123 121 114 105 93 72 57 63 98 102 108 103 93 81 79 81 79 76 77 74 70 67 56 49
149 158 191 136 144 143 157 154 146 161 175 160 98 44 37 72 145 141 139 137 136 136 127 110 88 64 47 55 65 76 91 94 85 78 70 72 75 78 81 75 61 53 52
74 90 114 94 99 115 142 161 153 172 178 172 145 126 117 65 33 37 131 138 144 146 131 131 122 96 76 64 60 45 45 73 76 69 59 52 56 78 81 82 71 62 53
62 81 79 95 68 75 109 78 22 164 163 7 148 101 126 166 137 11 33 130 136 135 143 143 117 118 116 105 93 76 57 39 57 63 64 56 53 60 65 75 77 67 51
89 91 91 91 87 71 65 53 42 25 7 99 345 50 355 122 139 142 8 39 115 136 131 129 136 138 125 117 106 97 77 59 50 45 51 50 49 64 63 58 51 55 51
111 110 108 107 100 103 97 87 75 69 89 19 98 115 79 58 60 124 163 165 79 183 133 130 134 125 112 114 105 97 86 76 70 59 47 49 41 49 56 55 48 48 44
122 120 126 126 129 132 127 126 129 124 131 124 127 141 132 129 129 143 123 168 140 90 37 101 119 127 129 125 123 119 104 92 90 72 59 54 40 46 55 44 43 40 41
146 154 138 151 145 128 124 121 91 113 130 114 115 108 93 84 109 72 88 103 117 100 104 358 108 126 131 122 128 125 114 97 85 76 66 62 43 44 60 49 40 40 36
136 145 115 90 29 114 106 131 112 105 116 121 115 101 115 108 98 70 107 100 67 98 122 181 153 135 140 136 141 132 122 118 99 79 66 63 54 62 64 51 41 37 38
132 139 123 125 127 139 127 144 129 125 152 146 140 140 136 144 133 140 128 132 140 183 183 203 154 148 149 145 146 139 130 125 113 94 70 52 47 61 81 60 44 34 32
125 136 129 149 136 131 148 144 138 111 150 113 95 111 85 101 140 134 122 120 129 153 219 145 131 146 157 145 148 138 138 131 118 116 107 82 59 44 80 61 46 39 34
151 154 154 158 141 161 150 127 129 146 135 128 136 148 151 159 145 118 105 147 163 147 125 20 113 151 151 156 147 144 140 135 124 117 119 108 90 92 80 69 55 47 44
155 151 156 144 152 155 141 143 154 149 153 150 156 140 143 120 110 111 110 92 144 118 121 159 141 151 152 147 146 148 153 136 130 134 131 119 122 99 88 79 69 57 57
159 165 158 162 169 163 148 159 154 155 142 139 144 140 136 128 122 110 103 106 126 137 144 142 164 109 135 144 153 155 151 130 139 144 138 136 129 112 101 81 70 62 59
159 181 163 159 158 147 148 152 140 136 136 138 141 144 141 134 159 178 170 196 200 148 134 135 146 108 144 160 149 129 133 145 143 149 140 147 135 129 114 96 82 68 61
151 153 156 128 145 145 156 148 136 142 137 120 101 106 109 107 97 80 121 191 190 177 168 162 134 122 177 155 150 149 140 152 145 117 151 154 121 98 112 102 89 79 65
148 156 156 155 149 168 174 155 133 133 133 122 124 106 94 92 86 87 87 82 95 142 185 154 166 172 163 157 119 150 145 145 150 181 165 143 138 133 132 149 115 98 86
165 170 168 161 165 171 167 143 135 135 137 140 138 123 106 95 106 117 99 86 69 62 57 190 163 158 148 165 150 127 146 179 145 147 144 113 124 135 154 143 130 118 102
174 179 182 165 159 162 152 142 133 128 130 150 149 138 132 138 152 126 103 88 76 67 36 24 76 125 118 115 124 128 163 125 82 127 131 126 150 138 120 28 135 132 125
176 169 179 165 150 158 148 134 130 137 129 137 140 137 133 145 152 137 113 111 93 64 81 94 99 99 103 112 119 127 147 130 114 159 348 118 149 119 124 183 218 160 142
169 154 162 163 162 160 152 148 142 139 135 136 123 135 152 148 159 146 131 132 124 164 112 49 47 89 91 93 95 78 150 168 130 84 230 116 127 135 166 174 217 221 109